Location: Unspecified
(0.0000°N, 0.0000°E)
Time: 15:48:29
(UTC+00:00)

HULIANWANG DIGUI-83 - Visible Passes

Search period start: 14 November 2025 00:00
Search period end: 24 November 2025 00:00
Orbit: 1140 x 1142 km, 86.5° (Epoch: 12 November)

Date Brightness Start Highest point End Pass type
(mag) Time Alt. Az. Time Alt. Az. Time Alt. Az.
14 Nov ? 03:35:16 10° SSE 03:41:58 48° E 03:48:38 10° NNE visible
15 Nov ? 03:03:07 10° SE 03:08:42 26° E 03:14:15 10° NE visible
15 Nov ? 04:50:49 10° SSW 04:56:47 30° W 05:02:46 10° NNW visible
16 Nov ? 02:32:39 10° ESE 02:35:26 13° E 02:38:12 10° ENE visible
16 Nov ? 04:16:41 10° SSW 04:23:32 57° W 04:30:22 10° NNW visible
17 Nov ? 03:43:14 10° S 03:50:16 81° E 03:57:17 10° N visible
18 Nov ? 03:10:24 10° SSE 03:17:00 44° E 03:23:34 10° NNE visible
18 Nov ? 05:00:47 10° SW 05:05:05 17° W 05:09:24 10° NW visible
19 Nov ? 02:38:23 10° SE 02:43:44 23° E 02:48:25 12° NE visible
19 Nov ? 04:25:41 10° SSW 04:31:50 33° W 04:36:28 16° NW visible
20 Nov ? 02:08:32 10° ESE 02:10:28 11° E 02:12:24 10° ENE visible
20 Nov ? 03:51:39 10° S 03:58:34 62° W 04:01:21 37° NNW visible
21 Nov ? 03:18:17 10° S 03:25:18 75° E 03:26:39 59° NNE visible
22 Nov ? 02:45:33 10° SSE 02:52:02 40° E 02:52:13 40° E visible
22 Nov ? 04:35:28 10° SW 04:40:07 19° W 04:40:21 19° W visible
23 Nov ? 02:13:41 10° SE 02:17:57 21° E 02:17:57 21° E visible
23 Nov ? 04:00:34 10° SSW 04:06:05 35° WSW 04:06:05 35° WSW visible
